Location: Newark
(34.0131°N, 4.3314°W)
Time: 00:29:26
(UTC+00:00)

SR - Pass Details

Date: 22 October 2019
Orbit: 573 x 882 km, 66.7° (Epoch: 21 November)

Event Time Altitude Azimuth Distance (km) Brightness Sun altitude
Rises 19:55:10 0° 155° (SSE) 2,965 - -29.6°
Reaches altitude 10° 19:58:50 10° 124° (SE) 2,134 - -30.4°
Maximum altitude 20:00:40 12° 102° (ESE) 2,035 - -30.8°
Drops below altitude 10° 20:02:34 10° 79° (E) 2,217 - -31.1°
Sets 20:06:33 0° 50° (NE) 3,230 - -32.0°
